| time (UTC) | temp F | wind direction | speed MPH | gust MPH | rain 1hr in | rain 24hr in | rain mn in | humidity % | barometer mb |
| 20260901104539 | 80 | 137 | 4.0 | 7.0 | 0.00 | 0.05 | 0.00 | 64 | 1011.4 |
| 20260901103041 | 80 | 146 | 2.0 | 5.0 | 0.00 | 0.05 | 0.00 | 64 | 1011.5 |
| 20260901101537 | 81 | 149 | 1.0 | 5.0 | 0.00 | 0.05 | 0.00 | 63 | 1011.5 |
| 20260901100035 | 82 | 178 | 0.0 | 3.0 | 0.00 | 0.05 | 0.00 | 63 | 1011.5 |
| 20260901094536 | 81 | 194 | 2.0 | 6.0 | 0.00 | 0.05 | 0.00 | 65 | 1011.5 |
| 20260901093034 | 81 | 162 | 2.0 | 6.0 | 0.00 | 0.05 | 0.00 | 66 | 1011.5 |
| 20260901091533 | 81 | 153 | 0.0 | 0.0 | 0.00 | 0.05 | 0.00 | 64 | 1011.5 |
| 20260901090032 | 82 | 153 | 0.0 | 1.0 | 0.00 | 0.05 | 0.00 | 62 | 1011.7 |
| 20260901084530 | 82 | 159 | 0.0 | 1.0 | 0.00 | 0.05 | 0.00 | 62 | 1011.7 |
| 20260901083029 | 83 | 161 | 0.0 | 1.0 | 0.00 | 0.05 | 0.00 | 62 | 1011.7 |
| 20260901081528 | 82 | 161 | 0.0 | 0.0 | 0.00 | 0.05 | 0.00 | 62 | 1011.7 |
| 20260901080029 | 82 | 161 | 0.0 | 0.0 | 0.00 | 0.05 | 0.00 | 62 | 1011.6 |
| 20260901074526 | 83 | 161 | 0.0 | 0.0 | 0.00 | 0.05 | 0.00 | 61 | 1011.6 |
| 20260901073033 | 83 | 161 | 0.0 | 0.0 | 0.00 | 0.05 | 0.00 | 60 | 1011.6 |
| 20260901071521 | 83 | 155 | 0.0 | 2.0 | 0.00 | 0.05 | 0.00 | 59 | 1011.7 |
| 20260901070017 | 83 | 171 | 1.0 | 6.0 | 0.00 | 0.05 | 0.00 | 61 | 1011.3 |
| 20260901064517 | 84 | 151 | 2.0 | 5.0 | 0.00 | 0.05 | 0.05 | 56 | 1011.2 |
| 20260901063022 | 83 | 202 | 4.0 | 7.0 | 0.00 | 0.05 | 0.05 | 58 | 1011.2 |
| 20260901061516 | 84 | 205 | 5.0 | 7.0 | 0.00 | 0.05 | 0.05 | 58 | 1011.2 |
| 20260901060033 | 84 | 195 | 4.0 | 6.0 | 0.00 | 0.05 | 0.05 | 57 | 1011.1 |
| 20260901054517 | 84 | 203 | 6.0 | 8.0 | 0.00 | 0.05 | 0.05 | 56 | 1011.1 |
| 20260901053016 | 84 | 196 | 5.0 | 8.0 | 0.00 | 0.05 | 0.05 | 56 | 1011.1 |
| 20260901051514 | 84 | 207 | 4.0 | 6.0 | 0.00 | 0.05 | 0.05 | 56 | 1011.1 |
| 20260901050014 | 84 | 213 | 5.0 | 8.0 | 0.00 | 0.05 | 0.05 | 55 | 1011.1 |
| 20260901044514 | 84 | 200 | 4.0 | 10.0 | 0.00 | 0.05 | 0.05 | 55 | 1011.1 |
| 20260901043013 | 84 | 209 | 6.0 | 9.0 | 0.00 | 0.05 | 0.05 | 56 | 1011.0 |
| 20260901041512 | 84 | 227 | 2.0 | 5.0 | 0.00 | 0.05 | 0.05 | 54 | 1010.9 |
| 20260901040012 | 85 | 315 | 2.0 | 7.0 | 0.00 | 0.05 | 0.05 | 54 | 1011.0 |
| 20260901034511 | 85 | 243 | 3.0 | 8.0 | 0.00 | 0.05 | 0.05 | 52 | 1010.8 |
| 20260901033013 | 86 | 259 | 4.0 | 8.0 | 0.00 | 0.05 | 0.05 | 49 | 1010.7 |
| 20260901031510 | 86 | 230 | 3.0 | 6.0 | 0.00 | 0.05 | 0.05 | 49 | 1010.5 |
| 20260901030009 | 86 | 225 | 2.0 | 5.0 | 0.00 | 0.05 | 0.05 | 48 | 1010.2 |
| 20260901024509 | 87 | 283 | 2.0 | 3.0 | 0.00 | 0.05 | 0.05 | 47 | 1010.1 |
| 20260901023009 | 87 | 291 | 0.0 | 0.0 | 0.00 | 0.05 | 0.05 | 45 | 1009.8 |
| 20260901021511 | 87 | 292 | 0.0 | 0.0 | 0.00 | 0.05 | 0.05 | 45 | 1009.6 |
| 20260901020008 | 87 | 292 | 0.0 | 0.0 | 0.00 | 0.05 | 0.05 | 45 | 1009.6 |
| 20260901014507 | 87 | 292 | 0.0 | 4.0 | 0.00 | 0.05 | 0.05 | 45 | 1009.6 |
| 20260901013009 | 87 | 288 | 0.0 | 0.0 | 0.00 | 0.05 | 0.05 | 45 | 1009.5 |
| 20260901011506 | 87 | 289 | 0.0 | 7.0 | 0.00 | 0.05 | 0.05 | 45 | 1009.4 |
| 20260901010008 | 87 | 229 | 0.0 | 5.0 | 0.00 | 0.05 | 0.05 | 46 | 1009.7 |
| 20260901004506 | 87 | 200 | 2.0 | 7.0 | 0.00 | 0.05 | 0.05 | 46 | 1009.4 |
| 20260901003014 | 88 | 192 | 0.0 | 5.0 | 0.00 | 0.05 | 0.05 | 49 | 1009.7 |
| 20260901001504 | 89 | 163 | 0.0 | 8.0 | 0.00 | 0.05 | 0.05 | 45 | 1009.8 |
| 20260901000002 | 88 | 200 | 0.0 | 0.0 | 0.00 | 0.05 | 0.05 | 47 | 1009.9 |
| 20260831234602 | 87 | 181 | 1.0 | 9.0 | 0.00 | 0.05 | 0.05 | 48 | 1010.1 |
| 20260831233002 | 87 | 193 | 0.0 | 9.0 | 0.00 | 0.05 | 0.05 | 50 | 1010.1 |
| 20260831231600 | 87 | 185 | 0.0 | 10.0 | 0.00 | 0.05 | 0.05 | 50 | 1010.3 |
| 20260831230113 | 87 | 184 | 0.0 | 10.0 | 0.01 | 0.05 | 0.05 | 50 | 1010.2 |
| 20260831224558 | 87 | 180 | 5.0 | 10.0 | 0.01 | 0.05 | 0.05 | 52 | 1010.2 |
| 20260831223108 | 86 | 151 | 4.0 | 9.0 | 0.01 | 0.05 | 0.05 | 56 | 1010.5 |
| 20260831221559 | 85 | 216 | 8.0 | 14.0 | 0.01 | 0.05 | 0.05 | 53 | 1010.8 |
| 20260831220055 | 85 | 178 | 8.0 | 10.0 | 0.00 | 0.04 | 0.04 | 56 | 1011.4 |
| 20260831214606 | 86 | 169 | 4.0 | 12.0 | 0.00 | 0.04 | 0.04 | 54 | 1011.7 |
| 20260831213054 | 83 | 123 | 9.0 | 13.0 | 0.00 | 0.04 | 0.04 | 58 | 1012.1 |
| 20260831211553 | 84 | 210 | 8.0 | 12.0 | 0.00 | 0.04 | 0.04 | 54 | 1012.4 |
| 20260831210050 | 82 | 155 | 7.0 | 16.0 | 0.01 | 0.04 | 0.04 | 61 | 1012.7 |
| 20260831204549 | 82 | 200 | 9.0 | 18.0 | 0.01 | 0.04 | 0.04 | 61 | 1012.9 |
| 20260831203048 | 82 | 223 | 7.0 | 17.0 | 0.01 | 0.04 | 0.04 | 62 | 1013.0 |
| 20260831201547 | 81 | 213 | 8.0 | 15.0 | 0.01 | 0.04 | 0.04 | 63 | 1013.0 |
| 20260831200100 | 81 | 188 | 7.0 | 15.0 | 0.00 | 0.03 | 0.03 | 63 | 1013.1 |
| 20260831194613 | 80 | 196 | 8.0 | 14.0 | 0.00 | 0.03 | 0.03 | 67 | 1013.0 |
| 20260831193044 | 80 | 190 | 7.0 | 10.0 | 0.01 | 0.03 | 0.03 | 68 | 1013.1 |
| 20260831191541 | 80 | 149 | 4.0 | 10.0 | 0.01 | 0.03 | 0.03 | 69 | 1013.5 |
| 20260831190050 | 80 | 176 | 6.0 | 14.0 | 0.01 | 0.03 | 0.03 | 65 | 1013.3 |
| 20260831184537 | 80 | 194 | 7.0 | 14.0 | 0.01 | 0.03 | 0.03 | 71 | 1013.6 |
| 20260831183037 | 79 | 196 | 5.0 | 9.0 | 0.00 | 0.02 | 0.02 | 76 | 1013.4 |
| 20260831181537 | 78 | 206 | 4.0 | 10.0 | 0.01 | 0.02 | 0.02 | 80 | 1013.4 |
| 20260831180035 | 77 | 219 | 7.0 | 10.0 | 0.01 | 0.02 | 0.02 | 80 | 1013.5 |
| 20260831174536 | 77 | 134 | 11.0 | 17.0 | 0.01 | 0.02 | 0.02 | 79 | 1013.9 |
| 20260831173036 | 78 | 142 | 4.0 | 11.0 | 0.02 | 0.02 | 0.02 | 79 | 1014.1 |
| 20260831171531 | 78 | 153 | 4.0 | 11.0 | 0.01 | 0.02 | 0.02 | 80 | 1013.9 |
| 20260831170037 | 77 | 178 | 4.0 | 11.0 | 0.01 | 0.02 | 0.02 | 82 | 1013.6 |
| 20260831164526 | 77 | 146 | 4.0 | 10.0 | 0.02 | 0.02 | 0.02 | 82 | 1013.6 |
| 20260831163025 | 77 | 157 | 5.0 | 12.0 | 0.01 | 0.01 | 0.01 | 82 | 1013.3 |
| 20260831161523 | 76 | 151 | 5.0 | 10.0 | 0.01 | 0.01 | 0.01 | 83 | 1013.4 |
| 20260831160023 | 76 | 144 | 6.0 | 11.0 | 0.01 | 0.01 | 0.01 | 83 | 1013.3 |
| 20260831154528 | 77 | 137 | 5.0 | 11.0 | 0.00 | 0.00 | 0.00 | 81 | 1013.3 |
| 20260831153013 | 77 | 200 | 6.0 | 11.0 | 0.00 | 0.00 | 0.00 | 75 | 1013.6 |
| 20260831151510 | 77 | 200 | 10.0 | 16.0 | 0.00 | 0.00 | 0.00 | 75 | 1013.2 |
| 20260831150007 | 78 | 121 | 9.0 | 20.0 | 0.00 | 0.00 | 0.00 | 72 | 1013.4 |
| 20260831144504 | 78 | 192 | 10.0 | 18.0 | 0.00 | 0.00 | 0.00 | 74 | 1012.8 |
| 20260831143101 | 79 | 252 | 12.0 | 22.0 | 0.00 | 0.00 | 0.00 | 72 | 1012.4 |
| 20260831141556 | 80 | 194 | 10.0 | 18.0 | 0.00 | 0.00 | 0.00 | 69 | 1012.1 |
| 20260831140056 | 82 | 198 | 9.0 | 19.0 | 0.00 | 0.00 | 0.00 | 65 | 1011.9 |
| 20260831134548 | 82 | 192 | 3.0 | 11.0 | 0.00 | 0.00 | 0.00 | 65 | 1011.4 |
| 20260831133048 | 81 | 214 | 5.0 | 11.0 | 0.00 | 0.00 | 0.00 | 65 | 1010.9 |
| 20260831131543 | 81 | 204 | 8.0 | 12.0 | 0.00 | 0.00 | 0.00 | 64 | 1010.6 |
| 20260831130046 | 81 | 224 | 4.0 | 9.0 | 0.00 | 0.00 | 0.00 | 64 | 1010.2 |
| 20260831124538 | 81 | 234 | 6.0 | 11.0 | 0.00 | 0.00 | 0.00 | 63 | 1010.0 |
| 20260831123041 | 82 | 211 | 5.0 | 9.0 | 0.00 | 0.00 | 0.00 | 60 | 1010.0 |
| 20260831121542 | 83 | 160 | 1.0 | 7.0 | 0.00 | 0.00 | 0.00 | 59 | 1009.8 |
| 20260831120034 | 83 | 130 | 4.0 | 9.0 | 0.00 | 0.00 | 0.00 | 56 | 1009.4 |
| 20260831114532 | 84 | 144 | 1.0 | 7.0 | 0.00 | 0.00 | 0.00 | 54 | 1009.2 |
| 20260831113032 | 84 | 159 | 3.0 | 8.0 | 0.00 | 0.00 | 0.00 | 54 | 1009.1 |
| 20260831111535 | 84 | 162 | 4.0 | 8.0 | 0.00 | 0.00 | 0.00 | 53 | 1009.1 |
| 20260831110030 | 83 | 154 | 1.0 | 6.0 | 0.00 | 0.00 | 0.00 | 57 | 1008.7 |